TimeEST,TemperatureF,Dew PointF,Humidity,Sea Level PressureIn,VisibilityMPH,Wind Direction,Wind SpeedMPH,Gust SpeedMPH,PrecipitationIn,Events,Conditions,WindDirDegrees,DateUTC
12:16 AM,23.0,23.0,100,30.37,5.0,Calm,Calm,-,N/A,,Clear,0,2012-11-16 05:16:00
12:36 AM,24.8,23.0,93,30.37,4.0,Calm,Calm,-,N/A,,Clear,0,2012-11-16 05:36:00
12:56 AM,24.8,23.0,93,30.37,5.0,Calm,Calm,-,N/A,,Clear,0,2012-11-16 05:56:00
1:16 AM,23.0,23.0,100,30.37,5.0,WNW,3.5,-,N/A,,Clear,300,2012-11-16 06:16:00
1:36 AM,23.0,21.2,93,30.37,7.0,Calm,Calm,-,N/A,,Clear,0,2012-11-16 06:36:00
1:56 AM,23.0,23.0,100,30.37,7.0,Calm,Calm,-,N/A,,Clear,0,2012-11-16 06:56:00
2:16 AM,23.0,23.0,100,30.37,7.0,Calm,Calm,-,N/A,,Clear,0,2012-11-16 07:16:00
2:36 AM,23.0,23.0,100,30.38,7.0,Calm,Calm,-,N/A,,Clear,0,2012-11-16 07:36:00
2:56 AM,23.0,21.2,93,30.38,7.0,Calm,Calm,-,N/A,,Clear,0,2012-11-16 07:56:00
3:16 AM,23.0,21.2,93,30.38,7.0,Calm,Calm,-,N/A,,Clear,0,2012-11-16 08:16:00
3:36 AM,23.0,21.2,93,30.38,7.0,Calm,Calm,-,N/A,,Clear,0,2012-11-16 08:36:00
3:56 AM,23.0,21.2,93,30.38,7.0,Calm,Calm,-,N/A,,Clear,0,2012-11-16 08:56:00
4:16 AM,23.0,21.2,93,30.38,7.0,Calm,Calm,-,N/A,,Clear,0,2012-11-16 09:16:00
4:36 AM,21.2,21.2,100,30.38,7.0,Calm,Calm,-,N/A,,Clear,0,2012-11-16 09:36:00
4:56 AM,21.2,21.2,100,30.39,7.0,Calm,Calm,-,N/A,,Clear,0,2012-11-16 09:56:00
5:16 AM,21.2,19.4,93,30.39,7.0,Calm,Calm,-,N/A,,Clear,0,2012-11-16 10:16:00
5:36 AM,21.2,19.4,93,30.39,7.0,Calm,Calm,-,N/A,,Clear,0,2012-11-16 10:36:00
5:56 AM,21.2,19.4,93,30.39,7.0,Calm,Calm,-,N/A,,Clear,0,2012-11-16 10:56:00
6:16 AM,21.2,19.4,93,30.40,7.0,Calm,Calm,-,N/A,,Clear,0,2012-11-16 11:16:00
6:36 AM,21.2,19.4,93,30.41,7.0,Calm,Calm,-,N/A,,Clear,0,2012-11-16 11:36:00
6:56 AM,21.2,19.4,93,30.42,7.0,Calm,Calm,-,N/A,,Clear,0,2012-11-16 11:56:00
7:16 AM,21.2,19.4,93,30.42,5.0,Calm,Calm,-,N/A,,Clear,0,2012-11-16 12:16:00
7:36 AM,21.2,21.2,100,30.42,5.0,Calm,Calm,-,N/A,,Clear,0,2012-11-16 12:36:00
7:56 AM,21.2,21.2,100,30.43,5.0,Calm,Calm,-,N/A,,Clear,0,2012-11-16 12:56:00
8:16 AM,23.0,23.0,100,30.43,5.0,Calm,Calm,-,N/A,,Clear,0,2012-11-16 13:16:00
8:36 AM,26.6,24.8,93,30.44,5.0,WNW,3.5,-,N/A,,Clear,300,2012-11-16 13:36:00
8:56 AM,30.2,28.4,93,30.44,4.0,WNW,3.5,-,N/A,,Clear,290,2012-11-16 13:56:00
9:16 AM,32.0,30.2,93,30.44,5.0,Calm,Calm,-,N/A,,Clear,0,2012-11-16 14:16:00
9:36 AM,33.8,30.2,87,30.45,5.0,Calm,Calm,-,N/A,,Clear,0,2012-11-16 14:36:00
9:56 AM,35.6,32.0,87,30.45,5.0,NW,5.8,-,N/A,,Haze,310,2012-11-16 14:56:00
10:16 AM,37.4,32.0,81,30.45,7.0,NW,3.5,-,N/A,,Clear,320,2012-11-16 15:16:00
10:36 AM,39.2,32.0,75,30.45,7.0,Calm,Calm,-,N/A,,Clear,0,2012-11-16 15:36:00
10:56 AM,41.0,32.0,70,30.45,7.0,Calm,Calm,-,N/A,,Clear,0,2012-11-16 15:56:00
11:16 AM,42.8,32.0,66,30.45,7.0,Calm,Calm,-,N/A,,Clear,0,2012-11-16 16:16:00
11:36 AM,44.6,32.0,61,30.44,-9999.0,Calm,Calm,-,N/A,,Clear,0,2012-11-16 16:36:00
11:56 AM,48.2,33.8,58,30.44,-9999.0,South,3.5,-,N/A,,Clear,190,2012-11-16 16:56:00
12:16 PM,50.0,33.8,54,30.43,7.0,SW,3.5,-,N/A,,Clear,230,2012-11-16 17:16:00
12:36 PM,50.0,33.8,54,30.43,10.0,Calm,Calm,-,N/A,,Clear,0,2012-11-16 17:36:00
12:56 PM,51.8,33.8,50,30.43,10.0,Calm,Calm,-,N/A,,Clear,0,2012-11-16 17:56:00
1:16 PM,51.8,33.8,50,30.43,10.0,Calm,Calm,-,N/A,,Clear,0,2012-11-16 18:16:00
1:36 PM,53.6,33.8,47,30.44,10.0,SW,3.5,-,N/A,,Clear,220,2012-11-16 18:36:00
1:56 PM,53.6,33.8,47,30.43,10.0,East,3.5,-,N/A,,Clear,90,2012-11-16 18:56:00
2:16 PM,53.6,33.8,47,30.43,10.0,Calm,Calm,-,N/A,,Clear,0,2012-11-16 19:16:00
2:36 PM,53.6,33.8,47,30.44,10.0,NE,9.2,-,N/A,,Clear,40,2012-11-16 19:36:00
2:56 PM,50.0,37.4,62,30.44,7.0,NE,8.1,-,N/A,,Clear,40,2012-11-16 19:56:00
3:16 PM,48.2,37.4,66,30.45,7.0,NE,8.1,-,N/A,,Clear,40,2012-11-16 20:16:00
3:36 PM,48.2,37.4,66,30.46,7.0,NE,6.9,-,N/A,,Clear,40,2012-11-16 20:36:00
3:56 PM,48.2,37.4,66,30.46,5.0,NE,6.9,-,N/A,,Haze,40,2012-11-16 20:56:00
4:16 PM,46.4,37.4,71,30.47,7.0,NE,5.8,-,N/A,,Clear,40,2012-11-16 21:16:00
4:36 PM,44.6,37.4,76,30.47,5.0,NE,3.5,-,N/A,,Haze,40,2012-11-16 21:36:00
4:56 PM,42.8,37.4,81,30.47,5.0,NNE,5.8,-,N/A,,Haze,30,2012-11-16 21:56:00
5:16 PM,42.8,37.4,81,30.48,5.0,NNE,3.5,-,N/A,,Haze,20,2012-11-16 22:16:00
5:36 PM,42.8,37.4,81,30.48,5.0,Calm,Calm,-,N/A,,Clear,0,2012-11-16 22:36:00
5:56 PM,39.2,35.6,87,30.49,4.0,Calm,Calm,-,N/A,,Clear,0,2012-11-16 22:56:00
6:16 PM,35.6,33.8,93,30.49,2.0,Calm,Calm,-,N/A,,Clear,0,2012-11-16 23:16:00
6:36 PM,35.6,33.8,93,30.49,2.5,Calm,Calm,-,N/A,,Clear,0,2012-11-16 23:36:00
6:56 PM,35.6,33.8,93,30.49,2.5,Calm,Calm,-,N/A,,Clear,0,2012-11-16 23:56:00
7:16 PM,33.8,32.0,93,30.49,2.5,Calm,Calm,-,N/A,,Clear,0,2012-11-17 00:16:00
7:36 PM,33.8,32.0,93,30.50,2.5,Calm,Calm,-,N/A,,Scattered Clouds,0,2012-11-17 00:36:00
7:56 PM,32.0,32.0,100,30.50,1.0,Calm,Calm,-,N/A,,Mist,0,2012-11-17 00:56:00
8:16 PM,32.0,32.0,100,30.50,0.5,Calm,Calm,-,N/A,Fog,Fog,0,2012-11-17 01:16:00
8:56 PM,30.2,28.4,93,30.50,0.2,Calm,Calm,-,N/A,Fog,Light Freezing Fog,0,2012-11-17 01:56:00
9:16 PM,30.2,30.2,100,30.50,1.5,Calm,Calm,-,N/A,,Overcast,0,2012-11-17 02:16:00
9:36 PM,30.2,30.2,100,30.51,0.2,Calm,Calm,-,N/A,Fog,Light Freezing Fog,0,2012-11-17 02:36:00
9:56 PM,30.2,30.2,100,30.51,0.2,Calm,Calm,-,N/A,Fog,Light Freezing Fog,0,2012-11-17 02:56:00
10:16 PM,28.4,28.4,100,30.51,0.2,Calm,Calm,-,N/A,Fog,Light Freezing Fog,0,2012-11-17 03:16:00
10:36 PM,28.4,26.6,93,30.51,0.2,Calm,Calm,-,N/A,Fog,Light Freezing Fog,0,2012-11-17 03:36:00
10:56 PM,28.4,26.6,93,30.51,1.0,Calm,Calm,-,N/A,,Overcast,0,2012-11-17 03:56:00
11:16 PM,28.4,28.4,100,30.51,0.5,Calm,Calm,-,N/A,Fog,Light Freezing Fog,0,2012-11-17 04:16:00
11:36 PM,28.4,28.4,100,30.51,0.5,Calm,Calm,-,N/A,Fog,Light Freezing Fog,0,2012-11-17 04:36:00
11:56 PM,28.4,28.4,100,30.52,0.2,Calm,Calm,-,N/A,Fog,Light Freezing Fog,0,2012-11-17 04:56:00